Location: Boursonne
(49.2024°N, 3.0468°E)
Time: 21:34:12
(UTC+00:00)

Cosmos 1470 Rocket - Pass Details

Date: 03 March 2021
Orbit: 603 x 634 km, 82.5° (Epoch: 14 April)

Event Time Altitude Azimuth Distance (km) Brightness Sun altitude
Rises 18:35:36 0° 181° (S) 2,918 7.0 -10.8°
Reaches altitude 10° 18:37:50 10° 179° (S) 2,012 6.2 -11.2°
Maximum altitude 18:42:17 69° 97° (E) 680 3.5 -11.9°
Drops below altitude 10° 18:46:43 10° 14° (NNE) 2,015 6.1 -12.6°
Sets 18:48:58 0° 12° (NNE) 2,923 6.9 -13.0°
